![](https://secure.gravatar.com/avatar/900f734c10632692418d1b47311b6af5.jpg?s=120&d=mm&r=g)
23 Jun
2016
23 Jun
'16
10:02 p.m.
Rupesh Lad,VU2LRD / VU2COE, of the COEP CSAT Team posted the following on AMSAT-BB:
CSAT Swayam Satellite is successfully placed in orbit by ISRO PSLV C34.
The post launch TLEs for tracking satellite are updated on website below. www.coep.org.in/csat
Swayam Post Launch TLEs
1 99999U 16005A 16174.17619444 .00001959 00000-0 92201-4 0 1233 2 99999 97.5045 233.3359 0010838 253.1764 319.5872 15.19417963 15
There were 20 satellites to be launched 6-22-2016. Further information is available in AMSAT NEWS Service Bulletin ANS-171 at http://amsat.org/pipermail/ans/2016/000915.html and also ont the AMSAT-UK website at http://amsat-uk.org/
CSAT Swayam is the only satellite that I have specific information on at this time.